Home   Weather   Grenoble   Past weeks

Flag for France Past Weather in Grenoble, Rhône-Alpes, France — Yesterday and Last 2 Weeks

Now
50 °F

Clear.


Feels Like: 46 °F
Forecast: 52 / 81 °F
Wind: 9 mph from East

Location: Grenoble / St. Geoirs

Current Time: Sep 29, 2016 at 7:08:28 AM

Latest Report: Sep 29, 2016 at 6:30 AM


Visibility: 10 mi

Pressure: 30.36 "Hg

Humidity: 94%

Dew Point: 48 °F

Location of GrenobleLocation

Past Weather in Grenoble — Graph

°F

Grenoble Temperature Yesterday

Maximum temperature yesterday: 75 °F (at 2:30 PM)
Minimum temperature yesterday: 46 °F (at 7:30 AM)
Average temperature yesterday: 62 °F

High & Low Weather Summary for the Past Weeks

 TemperatureHumidityPressure
High81 °F (Sep 14, 12:30 PM)100% (Sep 15, 5:00 AM)30.48 "Hg (Sep 15, 5:00 AM)
Low45 °F (Sep 22, 6:30 AM)38% (Sep 23, 4:00 PM)29.83 "Hg (Sep 14, 7:30 PM)
Average60 °F80%30.12 "Hg
* Reported Sep 14 6:00 AM — Sep 29 6:00 AM, Grenoble, Weather by CustomWeather, © 2016

Note: Actual official high and low records may vary slightly from our data, if they occured in-between our weather recording intervals... More about our weather records

Advertising

Grenoble Weather History for the Previous 24 Hours

Scroll right to see more
 ConditionsComfort  
Time TempWeatherWind HumidityBarometerVisibility
6:00 AM
Thu, Sep 29
50 °FClear.9 mph94%30.36 "Hg10 mi
5:30 AM50 °FClear.8 mph94%30.36 "Hg10 mi
5:00 AM52 °FClear.8 mph88%30.36 "Hg10 mi
4:30 AM52 °FClear.8 mph94%30.36 "Hg10 mi
4:00 AM52 °FClear.9 mph88%30.36 "Hg10 mi
3:30 AM52 °FClear.9 mph94%30.39 "Hg10 mi
3:00 AM52 °FClear.9 mph88%30.39 "Hg10 mi
2:30 AM52 °FClear.9 mph94%30.39 "Hg10 mi
2:00 AM52 °FClear.8 mph94%30.39 "Hg10 mi
1:30 AM52 °FClear.8 mph100%30.39 "Hg10 mi
1:00 AM52 °FClear.7 mph94%30.39 "Hg10 mi
12:30 AM54 °FClear.7 mph94%30.39 "Hg10 mi
12:00 AM54 °FClear.7 mph94%30.39 "Hg10 mi
11:30 PM
Wed, Sep 28
54 °FClear.6 mph94%30.39 "Hg10 mi
11:00 PM54 °FClear.5 mph94%30.39 "Hg10 mi
10:30 PM55 °FClear.6 mph88%30.39 "Hg10 mi
10:00 PM55 °FClear.6 mph94%30.39 "Hg10 mi
9:30 PM57 °FClear.5 mph88%30.39 "Hg10 mi
9:00 PM57 °FClear.5 mph88%30.39 "Hg10 mi
8:30 PM59 °FClear.6 mph82%30.39 "Hg10 mi
8:00 PM63 °FClear.3 mph77%30.39 "Hg10 mi
7:30 PM68 °FClear.1 mph60%30.39 "Hg10 mi
7:00 PM73 °FSunny.No wind44%30.39 "Hg10 mi
6:30 PM75 °FSunny.2 mph44%30.39 "Hg10 mi
6:00 PM75 °FPassing clouds.3 mph41%30.39 "HgN/A
5:30 PM75 °FClear.5 mph44%30.39 "HgN/A
5:00 PM75 °FPassing clouds.5 mph44%30.39 "HgN/A
4:30 PM75 °FPassing clouds.6 mph47%30.39 "HgN/A
4:00 PM75 °FSunny.6 mph47%30.39 "Hg10 mi
3:30 PM75 °FPassing clouds.6 mph47%30.39 "HgN/A
3:00 PM75 °FSunny.2 mph47%30.42 "Hg10 mi
2:30 PM75 °FSunny.1 mph50%30.42 "Hg10 mi
2:00 PM73 °FSunny.2 mph50%30.42 "Hg10 mi
1:30 PM73 °FSunny.2 mph53%30.45 "Hg10 mi
1:00 PM72 °FSunny.2 mph53%30.45 "Hg10 mi
12:30 PM70 °FPassing clouds.6 mph60%30.45 "HgN/A
12:00 PM70 °FPassing clouds.6 mph60%30.45 "HgN/A
11:30 AM68 °FPassing clouds.6 mph64%30.48 "HgN/A
11:00 AM66 °FPassing clouds.7 mph64%30.48 "HgN/A
10:30 AM63 °FPassing clouds.7 mph77%30.48 "HgN/A
10:00 AM61 °FSunny.3 mph83%30.45 "Hg10 mi
9:30 AM55 °FSunny.1 mph94%30.45 "Hg10 mi
9:00 AM54 °FSunny.No wind100%30.45 "Hg10 mi
8:30 AM52 °FSunny.1 mph94%30.42 "Hg10 mi
8:00 AM48 °FSunny.3 mph100%30.42 "Hg10 mi
7:30 AM46 °FClear.2 mph93%30.42 "HgN/A
7:00 AM48 °FClear.3 mph100%30.42 "Hg6 mi
Weather by CustomWeather, © 2016

See weather overviewHow to use our weather pages